#timestamp,LO_Frequency,Hit 
1502049615.7,286047030.6,N
1502049635.5,286047033.0,N
1502049655.3,286047030.2,N
1502049675.1,286047031.9,N
1502049695.9,286047030.5,N
1502049715.7,286047030.3,N
1502049735.5,286047034.2,N
1502049755.4,286047034.3,N
1502049775.2,286047032.3,N
1502049795.0,286047033.5,N
1502049795.9,286047033.5,N
1502049815.8,286047035.6,N
1502049835.6,286047036.1,N
1502049855.4,286047033.4,N
1502049875.3,286047034.7,N
1502049895.1,286047034.8,N
1502049896.0,286047034.8,N
1502049915.8,286047033.1,N
1502049935.7,286047028.7,N
1502049955.5,286047031.3,N
1502049975.3,286047029.5,N
1502049995.1,286047028.1,N
1502050015.9,286047027.7,N
1502050035.7,286047028.4,N
1502050055.5,286047027.5,N
1502050075.4,286047027.9,N
1502050095.2,286047027.2,N
1502050115.0,286047027.8,N
1502050115.9,286047027.8,N
1502050135.8,286047026.0,N
1502050155.6,286047025.6,N
1502050175.4,286047024.3,N
1502050195.3,286047024.0,N
1502050215.1,286047026.7,N
1502050216.0,286047026.7,N
1502050235.8,286047024.2,N
1502050255.7,286047024.7,N
1502050275.5,286047026.2,N
1502050295.3,286047026.7,N
1502050315.1,286047026.4,N
1502050335.9,286047026.3,N
1502050355.7,286047027.9,N
1502050375.5,286047026.1,N
1502050395.4,286047026.0,N
1502050415.2,286047026.0,N
1502050435.0,286047025.9,N
1502050435.9,286047025.9,N
1502050455.8,286047029.5,N
1502050475.6,286047029.3,N
1502050495.4,286047029.2,N
1502050515.3,286047031.2,N
1502050535.1,286047028.5,N
1502050536.0,286047028.5,N
1502050555.8,286047033.0,N
1502050575.7,286047030.9,N
1502050595.5,286047030.9,N
1502050615.3,286047031.3,N
1502050635.1,286047031.4,N
1502050655.9,286047032.6,N
1502050675.7,286047032.5,N
1502050695.5,286047032.6,N
1502050715.4,286047033.2,N
1502050735.2,286047032.0,N
1502050755.0,286047033.8,N
1502050755.9,286047033.8,N
1502050775.8,286047034.2,N
1502050795.6,286047032.7,N
1502050815.4,286047032.9,N
1502050835.3,286047030.9,N
1502050855.1,286047029.1,N
1502050856.0,286047029.1,N
1502050875.8,286047031.1,N
1502050895.7,286047030.8,N
1502050915.5,286047028.5,N
1502050935.3,286047029.7,N
1502050955.2,286047029.3,N
1502050975.9,286047029.1,N
1502050995.7,286047029.2,N
1502051015.5,286047031.1,N
1502051035.4,286047029.3,N
1502051055.2,286047029.5,N
1502051075.0,286047027.4,N
1502051075.9,286047027.4,N
1502051095.8,286047029.9,N
1502051115.6,286047027.7,N
1502051135.4,286047028.1,N
1502051155.3,286047025.7,N
1502051175.1,286047025.7,N
1502051195.8,286047027.6,N
1502051215.7,286047029.8,N
1502051235.5,286047028.0,N
1502051255.3,286047027.4,N
1502051275.2,286047027.1,N
1502051295.9,286047031.0,N
1502051315.7,286047031.0,N
1502051335.6,286047030.1,N
1502051355.4,286047029.1,N
1502051375.2,286047030.6,N
1502051395.0,286047032.6,N
1502051396.0,286047032.6,N
1502051415.8,286047031.7,N
1502051435.6,286047032.2,N
1502051455.4,286047033.1,N
1502051475.3,286047030.7,N
1502051495.1,286047030.9,N
1502051515.8,286047032.9,N
1502051535.7,286047032.4,N
1502051555.5,286047033.8,N
1502051575.3,286047034.8,N
1502051595.2,286047033.7,N
1502051615.9,286047035.9,N
1502051635.7,286047032.5,N
1502051655.6,286047030.3,N
1502051675.4,286047030.6,N
1502051695.2,286047031.6,N
1502051715.0,286047031.5,N
1502051716.0,286047031.5,N
1502051735.8,286047031.5,N
1502051755.6,286047029.3,N
1502051775.4,286047031.1,N
1502051795.3,286047029.1,N
1502051815.1,286047028.9,N
1502051835.8,286047030.4,N
1502051855.7,286047029.2,N
1502051875.5,286047029.8,N
1502051895.3,286047029.4,N
1502051915.2,286047029.8,N
1502051935.9,286047028.9,N
1502051955.7,286047030.8,N
1502051975.6,286047029.0,N
1502051995.4,286047027.3,N
1502052015.2,286047029.5,N
1502052035.0,286047030.8,N
1502052036.0,286047030.8,N
1502052055.8,286047029.0,N
1502052075.6,286047030.6,N
1502052095.4,286047029.3,N
1502052115.3,286047030.3,N
1502052135.1,286047032.0,N
1502052155.8,286047034.1,N
1502052175.7,286047034.8,N
1502052195.5,286047035.9,N
1502052215.3,286047033.7,N
1502052235.2,286047032.1,N
1502052255.9,286047033.0,N
1502052275.7,286047033.2,N
1502052295.6,286047034.5,N
1502052315.4,286047034.1,N
1502052335.2,286047034.0,N
1502052355.0,286047033.4,N
1502052355.9,286047033.4,N
1502052375.8,286047033.3,N
1502052395.6,286047033.3,N
1502052415.4,286047033.8,N
1502052435.3,286047033.7,N
1502052455.1,286047033.2,N
1502052475.8,286047032.5,N
1502052495.7,286047033.1,N
1502052515.5,286047032.5,N
1502052535.3,286047032.6,N
1502052555.2,286047032.5,N
1502052575.9,286047032.3,N
1502052595.7,286047031.7,N
1502052615.6,286047031.4,N
1502052635.4,286047029.0,N
1502052655.2,286047029.1,N
1502052675.0,286047028.7,N
1502052676.0,286047028.7,N
1502052695.8,286047029.5,N
1502052715.6,286047026.9,N
1502052735.4,286047028.6,N
1502052755.3,286047030.9,N
1502052775.1,286047030.1,N
1502052795.8,286047033.1,N
1502052815.7,286047031.2,N
1502052835.5,286047030.7,N
1502052855.3,286047033.2,N
1502052875.2,286047032.3,N
1502052895.9,286047034.3,N
1502052915.7,286047033.0,N
1502052935.6,286047030.6,N
1502052955.4,286047031.4,N
1502052975.2,286047031.9,N
1502052995.0,286047034.6,N
1502052995.9,286047034.6,N
1502053015.8,286047031.8,N
1502053035.6,286047032.2,N
1502053055.4,286047034.5,N
1502053075.3,286047034.3,N
1502053095.1,286047031.8,N
1502053115.8,286047031.9,N
1502053135.7,286047034.2,N
1502053155.5,286047033.9,N
1502053175.3,286047034.8,N
1502053195.2,286047031.7,N
